Helicity
31 34 34 33 26 22 22 19 10 9 10 9 8 18 19 18 27 41 47 112 94 105 97 102 187 175 217 263 265 294 359 237 264 232 284 135 172 132 107 249 330 332 191 127 251
30 36 33 31 29 26 26 20 12 10 11 9 12 24 20 34 45 50 95 61 142 149 158 197 204 264 351 386 354 388 405 296 291 240 199 85 110 102 177 240 375 349 259 275 280
30 28 30 28 26 25 22 21 16 10 17 24 32 46 49 47 15 88 147 182 88 74 81 96 141 221 348 356 405 381 239 339 236 247 255 166 195 98 160 219 203 260 202 241 271
24 23 17 21 23 27 28 18 15 13 33 45 66 82 38 16 84 146 125 41 52 73 111 141 189 273 310 360 328 375 205 209 151 232 257 234 227 322 178 179 92 119 121 229 270
26 21 22 23 19 28 27 14 13 25 43 61 88 80 44 47 0 94 41 37 38 56 81 137 172 174 255 199 212 243 172 205 177 93 120 151 167 233 326 164 107 151 132 178 239
24 21 22 17 17 23 20 10 9 28 43 63 93 60 63 64 52 25 53 47 72 70 72 68 46 59 109 123 153 184 217 165 132 120 112 145 110 166 231 141 104 109 135 178 231
21 20 18 10 7 1 6 4 -9 27 39 63 91 86 90 49 25 36 59 68 69 69 70 74 79 101 112 95 84 122 140 149 142 143 130 99 173 202 154 169 81 81 120 203 250
12 13 14 2 3 -13 -4 0 -9 25 131 154 91 67 70 22 29 23 74 84 71 81 111 73 75 121 106 81 69 47 92 76 82 77 98 96 184 169 128 142 99 87 115 176 202
11 8 7 1 -2 -16 -10 -13 0 105 27 44 79 84 59 21 95 60 114 101 86 89 97 77 108 133 94 104 61 39 77 109 -18 65 107 95 160 162 151 144 120 100 94 128 191
12 6 11 10 -2 0 -5 -1 -36 58 66 51 40 78 55 79 74 107 127 99 111 93 36 69 82 134 127 62 53 41 43 56 38 55 123 113 117 141 130 133 139 133 113 159 162
8 4 13 8 2 32 18 -17 -82 -64 114 -22 15 -26 79 95 106 54 28 81 118 122 91 87 100 91 100 61 16 12 52 47 33 51 133 126 103 139 147 149 144 122 104 177 149
7 7 4 -5 26 76 23 -43 27 63 45 79 -16 0 83 123 68 29 59 47 91 55 93 69 88 88 52 32 -18 -7 57 15 35 152 121 178 39 61 154 151 154 145 132 146 214
11 5 10 -7 26 84 49 22 50 112 92 121 26 61 66 67 43 38 70 63 62 37 22 50 105 -42 37 -7 -38 27 39 -17 94 120 91 66 123 129 174 158 193 180 134 142 155
17 17 15 -14 89 59 74 61 82 102 209 122 94 72 75 48 45 74 79 92 59 43 27 28 46 22 15 62 -17 79 6 -44 93 40 57 127 82 109 125 165 117 118 136 147 172
31 26 22 36 76 85 96 79 89 83 154 125 111 39 53 96 34 51 62 51 53 19 26 46 31 18 51 25 11 48 20 6 77 96 82 134 97 124 134 121 115 107 152 226 302
49 29 11 80 85 95 87 103 121 128 136 154 115 124 53 107 18 22 54 -26 52 12 60 77 44 66 135 16 44 57 41 79 68 50 45 33 87 45 110 105 125 144 166 210 269
54 31 48 98 87 84 94 112 93 154 138 121 111 132 70 79 19 26 20 -6 -13 15 29 -16 -40 25 73 23 71 53 54 68 88 40 -9 90 163 43 113 131 167 116 214 257 307
51 41 83 95 81 78 100 85 170 84 62 119 98 70 144 42 29 30 14 37 21 17 29 -18 -15 39 92 67 35 42 83 40 50 26 11 89 113 114 132 109 134 199 221 264 301
68 85 95 99 55 90 117 126 67 70 65 67 68 138 108 76 40 25 19 -2 14 29 20 -3 -39 23 22 76 40 62 76 53 -9 95 236 233 125 89 94 105 148 209 203 197 201
101 100 100 79 61 98 122 61 48 81 83 114 110 125 119 70 41 42 22 23 23 15 -33 5 -23 -19 47 42 49 29 54 77 47 44 57 63 50 58 97 71 74 122 152 149 154
121 124 91 59 76 126 107 48 41 60 109 104 86 78 60 74 85 34 33 18 -30 65 -5 6 5 0 -20 31 46 68 56 50 55 41 32 32 42 60 72 66 45 75 79 71 103
122 122 100 73 133 81 77 44 36 62 50 63 46 42 44 47 48 36 33 53 -16 -3 13 -8 0 16 23 8 14 39 56 45 44 69 24 63 30 21 29 41 41 72 96 94 91
120 109 77 99 124 82 48 53 53 62 67 60 49 49 31 40 35 66 24 28 -9 -10 20 27 2 21 29 24 26 25 94 51 53 38 67 42 28 -5 29 85 90 65 86 75 77
122 115 120 132 101 127 93 69 59 53 74 40 35 36 22 36 68 36 39 16 33 -20 29 -8 9 -2 10 32 46 26 84 78 52 50 23 35 31 29 32 37 32 52 63 71 66
133 110 134 152 123 142 112 90 85 93 73 39 52 46 25 33 18 23 29 21 39 -1 -4 -7 22 21 23 22 13 31 40 75 50 49 29 0 36 63 37 2 0 21 45 63 49
177 166 177 180 171 182 117 98 108 105 106 60 65 34 55 74 70 32 -10 14 15 3 -11 30 9 20 13 32 33 23 78 62 59 99 90 66 80 44 24 10 0 -4 2 15 30
183 187 211 182 204 189 131 129 117 138 71 50 54 62 80 67 76 66 44 15 27 22 5 14 28 25 13 30 40 30 46 58 60 70 51 32 40 24 31 23 6 1 4 11 13
Wind_Speed
67 69 70 71 73 74 76 78 80 80 80 81 82 82 82 82 80 63 64 49 52 57 58 60 59 56 53 53 46 41 72 101 96 85 79 52 58 49 45 44 46 48 40 29 19
69 70 72 73 76 78 79 80 81 80 81 82 83 82 81 77 74 62 48 44 50 58 61 64 67 67 63 62 55 56 71 85 72 70 73 69 62 59 53 46 50 45 32 19 20
71 72 73 75 77 79 81 82 81 82 83 83 82 79 73 72 66 51 51 54 57 62 63 66 66 66 70 66 63 71 82 67 60 61 65 69 64 55 58 63 53 44 30 25 25
72 74 75 77 80 82 83 83 83 83 82 80 77 73 69 61 72 53 57 56 62 67 66 69 68 74 74 80 71 90 90 83 80 77 67 69 61 69 59 61 48 31 30 31 30
74 76 77 80 83 85 87 86 85 84 78 75 70 67 60 66 55 50 56 58 62 64 68 71 73 75 82 77 80 96 104 96 91 81 89 84 88 73 70 54 34 31 31 34 34
75 77 80 82 85 87 88 89 87 83 75 67 61 61 59 68 45 50 63 66 70 71 71 65 69 63 78 81 85 82 95 97 93 95 84 92 87 69 58 46 40 39 41 38 39
77 79 82 85 87 90 89 92 91 86 69 56 55 54 55 53 49 59 66 70 68 63 68 57 51 53 57 76 69 76 94 95 95 89 90 76 88 84 59 44 45 46 43 42 41
78 81 84 87 89 90 91 92 91 72 62 56 52 49 53 45 58 60 67 69 59 50 47 45 38 41 48 53 67 75 79 95 90 84 86 74 109 80 53 48 50 47 45 43 42
80 83 86 89 90 89 89 89 79 55 75 46 50 50 58 59 69 62 61 64 57 48 41 31 31 33 43 54 64 56 77 83 85 70 72 71 89 73 56 53 56 48 45 45 42
82 85 88 90 91 87 86 75 64 60 57 48 56 52 59 73 65 61 56 50 50 48 53 35 33 27 36 34 57 56 60 65 75 62 72 74 74 65 56 60 63 53 48 51 49
83 86 90 91 86 79 85 66 76 65 65 61 60 56 59 60 58 62 58 54 45 44 44 35 33 17 8 5 57 68 65 63 57 64 61 68 76 63 68 63 64 60 55 54 52
84 86 90 90 78 71 74 74 64 53 59 53 48 53 54 57 66 66 62 61 53 43 43 36 30 11 10 14 48 60 63 66 53 53 46 56 62 58 54 60 67 61 57 55 50
84 87 89 88 63 68 71 76 53 46 51 58 56 59 68 63 61 66 64 61 46 41 43 35 37 6 17 49 51 54 62 53 52 41 39 48 60 61 50 53 57 56 51 48 47
83 86 86 88 57 70 66 69 53 45 56 67 70 62 69 65 57 56 58 53 43 41 46 35 36 20 14 15 44 47 55 51 47 37 36 48 56 57 51 50 51 54 49 45 41
82 83 77 65 59 68 63 61 49 47 75 71 64 50 65 68 56 62 58 49 44 44 42 42 10 9 6 17 36 42 42 45 44 33 29 39 44 49 42 53 53 47 46 40 39
79 80 69 57 58 58 60 52 49 63 71 65 64 71 73 62 55 56 54 66 39 42 34 14 14 16 30 22 31 25 26 31 37 37 36 45 30 44 48 53 51 47 43 40 37
74 70 55 53 67 59 57 55 67 74 67 69 69 66 69 70 58 61 52 68 67 52 59 36 31 1 13 13 24 20 23 33 34 40 42 47 25 25 39 43 46 44 41 39 38
75 57 46 50 57 56 56 63 76 65 65 56 62 63 65 72 55 57 50 58 57 60 40 51 46 31 21 15 28 35 33 24 29 39 49 51 33 28 32 35 35 32 34 34 35
67 50 46 58 58 51 61 74 66 61 58 62 62 64 63 62 56 55 55 50 55 59 49 49 41 31 27 25 24 25 27 26 20 28 25 28 22 23 22 22 28 34 33 36 38
57 51 46 63 54 53 63 63 56 53 54 53 64 60 64 63 60 57 54 40 59 55 48 43 42 37 30 28 25 25 28 30 28 22 21 26 24 25 30 28 22 28 36 38 38
51 55 47 58 48 59 64 58 53 49 51 51 53 55 54 60 50 46 47 36 60 54 44 43 40 38 29 29 30 29 28 27 26 26 26 21 30 33 37 35 19 22 29 33 37
50 57 50 50 58 55 58 52 49 51 47 46 44 47 50 51 47 41 40 39 57 52 49 40 36 36 32 30 30 33 32 31 32 29 25 24 26 33 32 29 14 26 32 31 31
51 49 45 47 57 58 52 50 48 52 47 48 47 44 44 46 47 37 33 43 56 49 46 39 36 35 32 31 27 29 31 31 29 29 28 30 29 32 31 25 19 21 29 27 28
48 54 51 49 47 50 52 53 53 47 42 44 42 44 49 45 36 35 31 39 52 45 44 34 33 32 29 29 32 29 29 32 30 30 27 26 24 31 29 24 17 17 25 25 26
42 45 45 53 51 47 46 48 53 52 41 41 41 47 48 46 42 35 29 39 39 39 41 33 34 35 37 35 32 31 29 28 26 30 34 21 23 28 26 22 16 16 21 25 26
39 39 40 43 41 43 43 45 45 46 41 41 42 44 43 41 35 34 27 29 29 43 41 37 35 36 34 33 32 30 30 27 26 23 17 17 22 25 22 21 16 17 18 24 28
29 31 33 37 39 41 40 40 40 39 34 30 37 44 42 38 33 20 3 36 32 33 44 39 38 36 35 36 34 34 34 33 31 28 32 35 29 22 22 21 25 31 34 35 34
Wind_Direction
355 356 356 357 356 357 353 347 342 342 340 338 336 335 334 333 333 341 334 333 334 329 325 318 313 310 303 292 286 284 279 272 272 271 271 280 272 281 292 270 265 265 265 263 210
356 356 356 355 353 351 350 348 344 344 341 339 338 337 336 337 338 342 348 343 337 334 326 320 312 303 294 289 278 269 273 276 278 275 277 273 274 275 276 268 263 261 266 201 198
356 356 355 354 352 352 349 346 345 344 342 341 341 342 343 342 341 345 348 344 336 331 323 316 310 304 290 283 276 269 264 267 284 283 279 273 273 273 268 261 260 248 233 214 208
357 355 354 352 350 348 346 346 345 345 344 345 347 348 347 348 337 343 342 340 335 330 324 318 310 300 291 281 278 271 267 268 271 274 278 271 276 269 267 266 263 239 219 220 218
351 349 347 346 345 343 341 343 344 345 347 348 351 352 354 347 344 352 343 339 336 332 325 319 309 300 289 286 280 269 270 270 269 270 267 270 263 266 264 267 256 235 226 224 226
348 346 343 340 338 337 339 341 344 346 347 350 354 356 355 349 357 349 345 340 334 327 321 316 312 305 295 287 278 278 273 268 267 264 264 261 261 265 262 258 246 237 233 230 230
347 345 342 340 337 338 341 341 342 345 351 357 359 1 0 359 360 349 345 340 337 333 327 323 317 311 304 293 289 280 271 268 263 261 258 260 255 254 258 252 242 239 236 235 233
347 345 344 341 340 341 342 344 344 354 5 2 4 7 1 7 357 349 347 345 343 342 340 340 331 317 307 302 291 282 272 261 259 256 254 254 248 252 249 240 241 239 235 234 232
345 344 342 343 342 343 347 348 355 8 358 14 13 9 5 359 355 353 353 349 351 352 350 344 342 329 313 298 289 286 270 260 257 254 248 246 247 245 243 239 239 236 236 235 232
345 344 343 342 343 348 351 357 4 9 13 22 18 8 4 359 359 355 356 355 355 357 357 10 359 348 328 305 287 284 272 260 253 255 242 243 248 241 241 239 238 237 239 237 236
343 342 342 344 347 357 357 5 5 4 9 11 7 9 0 2 0 6 11 2 5 2 3 10 4 8 57 139 231 261 257 253 257 252 244 238 245 241 241 241 239 238 237 238 236
344 344 342 345 353 7 7 8 9 7 1 12 11 7 4 5 4 10 11 7 7 9 12 20 18 59 48 180 232 240 243 240 259 251 244 238 238 243 238 241 236 234 235 235 235
346 341 344 347 3 7 9 8 13 17 6 9 11 9 8 9 10 8 13 13 18 23 18 21 22 212 25 294 254 243 228 243 244 256 247 235 241 237 248 243 238 236 237 234 230
348 345 346 346 9 4 7 6 13 20 5 5 7 11 10 10 16 18 20 22 32 25 16 28 28 57 57 144 261 245 223 232 241 249 244 236 240 238 239 239 236 232 232 232 230
351 350 354 5 5 4 4 7 16 16 354 359 6 15 9 16 13 18 27 26 30 22 27 33 233 237 137 142 274 243 229 231 238 246 253 244 245 240 238 235 232 231 232 230 231
351 350 357 7 5 7 6 12 15 2 356 2 4 6 9 16 20 19 28 10 30 32 47 76 234 88 62 356 251 247 245 240 234 249 255 238 245 240 237 239 236 237 233 231 230
354 356 2 9 359 5 9 9 360 0 1 359 2 7 9 9 17 21 26 25 20 24 16 307 299 12 293 291 234 247 252 244 249 247 241 222 238 255 246 251 244 237 233 233 231
351 1 11 9 5 7 10 3 357 0 1 5 5 6 11 15 19 20 29 29 16 358 29 340 1 310 287 214 231 220 220 234 253 246 246 227 241 260 266 264 252 242 239 236 237
354 5 9 5 6 12 6 358 360 1 3 3 7 9 11 17 18 23 27 32 9 339 12 352 333 289 260 263 249 252 238 253 240 236 237 230 267 281 299 293 260 247 242 243 245
355 360 5 1 10 12 4 1 3 10 9 12 7 13 10 12 17 23 27 36 344 328 319 342 332 315 272 267 277 271 265 249 250 263 259 253 267 279 279 281 282 257 249 252 256
358 354 6 4 15 8 2 3 6 12 15 13 12 11 14 13 19 25 29 38 339 315 311 322 336 317 299 298 271 278 271 277 266 268 268 277 274 274 277 278 296 276 263 260 261
355 349 3 10 360 6 4 7 10 11 17 19 20 18 16 17 20 27 30 33 332 320 323 313 307 304 292 291 297 272 276 283 268 272 290 288 290 309 310 308 322 280 265 267 266
352 353 7 10 355 358 4 7 11 9 15 15 17 22 22 20 20 24 34 6 325 324 316 296 313 301 286 288 305 306 285 294 284 281 293 286 294 323 322 331 325 291 266 268 266
355 349 357 4 7 3 1 2 3 12 17 20 20 22 16 21 27 21 28 18 303 319 305 302 305 297 293 261 254 282 278 278 281 281 291 307 319 323 338 349 338 297 269 265 264
1 354 360 351 357 5 7 5 2 5 18 21 21 20 18 16 15 26 30 11 348 308 303 305 293 288 252 255 259 266 277 293 291 274 277 309 327 317 335 342 340 301 273 261 260
360 0 4 2 7 6 5 4 6 8 13 15 16 14 16 16 15 9 17 25 30 290 303 290 282 287 274 283 286 290 295 296 312 301 318 339 324 315 337 1 339 290 278 260 255
8 12 9 6 6 5 7 11 10 16 19 20 16 11 14 17 17 6 65 226 212 243 294 289 286 286 282 282 278 268 279 287 288 291 266 260 282 313 320 308 275 257 249 251 258